Regional Weather Roundup
Issued by NWS Kansas City/Pleasant Hill, MO

Home | Current Version | Previous Version | Text Only | Print | Product List | Glossary On
Versions: 1 2 3 4 5 6 7 8 9 10 11 12 13 14 15 16 17 18 19 20 21 22 23 24 25 26 27 28
000
ASUS43 KEAX 301710
RWREAX

WEATHER ROUNDUP FOR EASTERN KANSAS AND NORTHWEST MISSOURI
NATIONAL WEATHER SERVICE KANSAS CITY/PLEASANT HILL MO
1200 PM CDT MON MAY 30 2016

KSZ040-057-103>105-MOZ028-029-037-043-301800-
...KANSAS CITY METROPOLITAN AREA...

CITY           SKY/WX    TMP DP  RH WIND       PRES   REMARKS
K.C. INTL      PTSUNNY   82  68  62 SE9       30.02F
K.C. DOWNTOWN  CLOUDY    84  66  54 SE10      30.00F
LEES SUMMIT    CLOUDY    80  67  64 SE7       30.03F
OLATHE - IXD   CLOUDY    80  68  66 S8        30.03F
OLATHE - OJC   CLOUDY    78  69  73 SE8       30.03F
LAWRENCE       CLOUDY    83  67  58 S10       30.00F

$$

MOZ001>008-011>017-020>025-030>033-038>040-044>046-053-054-301800-
...NORTHERN AND CENTRAL MISSOURI...

CITY           SKY/WX    TMP DP  RH WIND       PRES   REMARKS
ST. JOSEPH     SUNNY     83  65  54 SE10      30.00F
MOSBY          CLOUDY    81  66  61 S3        30.02S
WARRENSBURG    CLOUDY    81  64  57 S6        30.03S
WHITEMAN AFB   CLOUDY    82  67  60 VRB5      30.03F
CLINTON        MOSUNNY   82  64  54 S8        30.04S
SEDALIA        CLOUDY    83  66  56 VRB3      30.05F
WARSAW         NOT AVBL
CHILLICOTHE      N/A     84  67  56 S5        30.03F
KIRKSVILLE     SUNNY     82  65  56 SW7       30.05F

$$

MOZ041-047>049-056>058-063>065-088>090-097-301800-
...EASTERN AND SOUTHERN MISSOURI...

CITY           SKY/WX    TMP DP  RH WIND       PRES   REMARKS
ST. LOUIS INTL PTSUNNY   88  60  38 CALM      30.06F
SPIRIT OF STL  PTSUNNY   85  62  46 CALM      30.04F
COLUMBIA       PTSUNNY   82  63  52 VRB3      30.05F
JEFFERSON CITY MOSUNNY   85  64  49 VRB3      30.04F
ROLLA          MOSUNNY   79  62  56 SW3       30.07S
SPRINGFIELD    MOSUNNY   81  61  50 S12       30.06S
BRANSON        CLOUDY    79  63  57 S6        30.11R
JOPLIN         CLOUDY    74  67  78 SW13      30.07S
WEST PLAINS    PTSUNNY   81  63  54 SE7       30.10F

$$

IAZ060-094-KSZ022-034>040-054-083-096-NEZ052-066-093-301800-
...KANSAS...SOUTHEAST NEBRASKA AND IOWA...

CITY           SKY/WX    TMP DP  RH WIND       PRES   REMARKS
TOPEKA           N/A     81  65  58 S10       30.00F
MANHATTAN      SUNNY     81  65  58 S9        29.99F
EMPORIA        SUNNY     79  60  52 SW8       30.02F
CHANUTE        CLOUDY    74  64  71 S12       30.07R
WICHITA        MOSUNNY   80  60  50 S15       30.02F
OMAHA          CLOUDY    82  62  50 S10       29.97F
LINCOLN        MOSUNNY   80  62  54 VRB3      29.98F
FALLS CITY     SUNNY     83  68  60 SW7       29.98F
LAMONI         SUNNY     80  66  62 SW12      30.02F
DES MOINES     MOSUNNY   83  62  49 SE7       29.99F

$$





USA.gov is the U.S. government's official web portal to all federal, state and local government web resources and services.